Regional Weather Roundup
Issued by NWS Cleveland, OH

Home | Current Version | Previous Version | Text Only | Print | Product List | Glossary Off
Versions: 1 2 3 4 5 6 7 8 9 10 11 12 13 14 15 16 17 18 19 20 21 22 23 24 25 26 27 28 29 30 31 32 33 34 35 36 37 38 39 40 41 42 43 44 45 46 47 48 49 50

000
ASUS41 KCLE 260710
RWRCLE
OHIO REGIONAL WEATHER ROUNDUP
NATIONAL WEATHER SERVICE CLEVELAND, OH
200 AM EST MON JAN 26 2015

NOTE: "FAIR" INDICATES FEW OR NO CLOUDS BELOW 12,000 FEET WITH NO
SIGNIFICANT WEATHER AND/OR OBSTRUCTIONS TO VISIBILITY.

OHZ001>008-015>018-024>027-034-035-043-044-260800-
   NORTHWEST OHIO

CITY           SKY/WX    TMP DP  RH WIND       PRES   REMARKS
DEFIANCE       CLOUDY    19   7  59 NE13G22   29.91F WCI   6
FINDLAY        LGT SNOW  17  13  84 NE16      29.86F FOG     WCI   2
TOLEDO EXPRESS CLOUDY    18   6  59 NE14      29.91F WCI   4
TOLEDO EXEC    CLOUDY    17   6  62 NE14G23   29.92F WCI   3
LIMA           LGT SNOW  18  13  80 N15       29.83F WCI   4
$$

OHZ009>014-019>023-028>033-038-089-260800-
   NORTHEAST OHIO

CITY           SKY/WX    TMP DP  RH WIND       PRES   REMARKS
CLE-HOPKINS    LGT SNOW  19  14  81 NE15      29.88S WCI   5
CLE-LAKEFRONT  LGT SNOW  20  12  71 NE13      29.86F WCI   7
CUY CO. ARPT   NOT AVBL
LORAIN-ELYRIA  LGT SNOW  19  15  84 NE20G26   29.86S FOG     WCI   3
ASHTABULA      CLOUDY    17   6  62 VRB5      29.87F WCI  10
AKRON-CANTON   LGT SNOW  20  15  81 NE15      29.77F VSB 1   WCI   6
WOOSTER        LGT SNOW  19  16  88 N12       29.79F VSB 1   WCI   7
MANSFIELD      LGT SNOW  19  16  88 N12       29.78F FOG     WCI   7
YOUNGSTOWN     LGT SNOW  19  15  84 NE14      29.79F FOG     WCI   6
$$

OHZ042-051>053-060>062-070>072-077>081-260800-
  SOUTHWEST OHIO

CITY           SKY/WX    TMP DP  RH WIND       PRES   REMARKS
CINC-COVINGTON LGT SNOW  27  24  89 N15       29.73R FOG     WCI  15
CINC-LUNKEN    LGT SNOW  27  26  96 N9        29.77R FOG     WCI  18
HAMILTON       CLOUDY    26  23  88 N9        29.78R WCI  17
DAYTON         LGT SNOW  21  18  88 N18       29.78R FOG     WCI   6
WRIGHT-PAT AFB LGT SNOW  22  19  89 N16       29.77R FOG     WCI   8
DAYTON GENERAL LGT SNOW  23  20  88 N18G24    29.75R FOG     WCI   9
WILMINGTON     LGT SNOW  24  20  84 N15G25    29.70F FOG     WCI  11
$$

OHZ036-037-039>041-045>050-054>059-063>069-073>076-082>088-260800-
  CENTRAL AND SOUTHEAST OHIO

CITY           SKY/WX    TMP DP  RH WIND       PRES   REMARKS
COLUMBUS       LGT SNOW  25  21  85 N15       29.74F FOG     WCI  13
OSU AIRPORT    LGT SNOW  23  20  88 N14       29.75S VSB 1   WCI  11
BOLTON FIELD   CLOUDY    25  23  93 MISG      29.74S
RICKENBACK AFB LGT SNOW  27  25  91 N14       29.73S WCI  16
NEWARK         LGT SNOW  26  23  88 NE7       29.73F FOG     WCI  18
MARION         LGT SNOW  20  16  84 N21       29.80S VSB 3/4 WCI   4
LANCASTER      LGT SNOW  28  25  88 NE13      29.72S FOG     WCI  17
ZANESVILLE     LGT SNOW  27  24  89 N6        29.73S FOG     WCI  20
NEW PHILLY     LGT SNOW  23  19  85 N5        29.77S FOG     WCI  17
$$


USA.gov is the U.S. government's official web portal to all federal, state and local government web resources and services.